CW6413 Weather Reports


Display with metric or nautical units.
time (UTC)temp
F
wind
direction
speed
MPH
gust
MPH
rain 1hr
in
rain 24hr
in
rain mn
in
humidity
%
barometer
mb
20260510005807 60 298 4.0 5.0 0.00 0.00 0.00 74 1011.1
20260510004807 61 308 3.0 6.0 0.00 0.00 0.00 73 1011.0
20260510004307 62 303 5.0 6.0 0.00 0.00 0.00 71 1010.9
20260510003808 62 313 5.0 6.0 0.00 0.00 0.00 71 1010.8
20260510003307 63 311 5.0 6.0 0.00 0.00 0.00 69 1010.7
20260510002808 63 306 5.0 6.0 0.00 0.00 0.00 69 1010.6
20260510002308 63 307 5.0 6.0 0.00 0.00 0.00 69 1010.6
20260510001807 64 308 5.0 6.0 0.00 0.00 0.00 67 1010.5
20260510001307 64 310 5.0 6.0 0.00 0.00 0.00 67 1010.4
20260510000807 64 305 5.0 6.0 0.00 0.00 0.00 66 1010.4
20260510000308 65 309 5.0 6.0 0.00 0.00 0.00 65 1010.3
20260509235807 65 306 5.0 6.0 0.00 0.00 0.00 64 1010.3
20260509234308 67 319 5.0 5.0 0.00 0.00 0.00 62 1010.3
20260509233807 68 306 3.0 5.0 0.00 0.00 0.00 61 1010.4
20260509233308 69 308 3.0 5.0 0.00 0.00 0.00 58 1010.3
20260509232807 70 301 3.0 5.0 0.00 0.00 0.00 57 1010.3
20260509232307 71 258 3.0 5.0 0.00 0.00 0.00 55 1010.3
20260509231808 71 254 2.0 5.0 0.00 0.00 0.00 54 1010.2
20260509231307 72 232 3.0 5.0 0.00 0.00 0.00 50 1010.2
20260509230807 72 239 3.0 7.0 0.00 0.00 0.00 49 1010.2
20260509230307 72 221 4.0 8.0 0.00 0.00 0.00 49 1010.2
20260509225807 72 227 3.0 10.0 0.00 0.00 0.00 50 1010.2
20260509225308 73 224 5.0 8.0 0.00 0.00 0.00 48 1010.1
20260509224308 73 230 4.0 8.0 0.00 0.00 0.00 46 1010.2
20260509223807 73 229 4.0 12.0 0.00 0.00 0.00 46 1010.2
20260509223307 73 214 5.0 10.0 0.00 0.00 0.00 46 1010.1
20260509222307 74 210 7.0 10.0 0.00 0.00 0.00 46 1010.1
20260509221807 74 229 5.0 9.0 0.00 0.00 0.00 45 1010.0
20260509221308 74 204 5.0 10.0 0.00 0.00 0.00 45 1010.0
20260509220807 74 205 7.0 13.0 0.00 0.00 0.00 44 1010.0
20260509220307 74 232 7.0 12.0 0.00 0.00 0.00 44 1010.0
20260509215808 74 245 5.0 8.0 0.00 0.00 0.00 44 1010.0
20260509215307 73 201 3.0 7.0 0.00 0.00 0.00 44 1010.0
20260509213807 73 212 4.0 7.0 0.00 0.00 0.00 44 1010.0
20260509212808 73 171 3.0 8.0 0.00 0.00 0.00 46 1009.9
20260509212307 73 222 6.0 9.0 0.00 0.00 0.00 45 1010.0
20260509211807 73 227 6.0 10.0 0.00 0.00 0.00 44 1009.9
20260509211307 73 210 4.0 10.0 0.00 0.00 0.00 45 1009.9
20260509210808 73 206 3.0 8.0 0.00 0.00 0.00 46 1009.9
20260509210307 73 206 2.0 6.0 0.00 0.00 0.00 46 1009.9
20260509205808 73 205 4.0 8.0 0.00 0.00 0.00 45 1009.9
20260509205307 73 216 5.0 9.0 0.00 0.00 0.00 45 1009.9
20260509204807 73 215 6.0 10.0 0.00 0.00 0.00 44 1009.8
20260509204307 73 200 6.0 9.0 0.00 0.00 0.00 44 1009.7
20260509203807 73 197 4.0 7.0 0.00 0.00 0.00 45 1009.7
20260509203308 73 211 3.0 6.0 0.00 0.00 0.00 45 1009.8
20260509202807 73 214 5.0 8.0 0.00 0.00 0.00 44 1009.8
20260509202307 73 207 3.0 9.0 0.00 0.00 0.00 44 1009.9
20260509201807 74 203 8.0 13.0 0.00 0.00 0.00 43 1009.8
20260509201307 74 200 3.0 8.0 0.00 0.00 0.00 44 1009.8
20260509200808 74 223 6.0 12.0 0.00 0.00 0.00 43 1009.9
20260509200307 74 231 4.0 10.0 0.00 0.00 0.00 45 1009.9
20260509195807 73 235 2.0 6.0 0.00 0.00 0.00 44 1009.8
20260509195307 73 127 3.0 12.0 0.00 0.00 0.00 44 1009.9
20260509194807 73 203 5.0 13.0 0.00 0.00 0.00 46 1010.0
20260509194307 73 240 4.0 7.0 0.00 0.00 0.00 46 1010.1
20260509193308 71 259 2.0 6.0 0.00 0.00 0.00 48 1010.3
20260509192807 71 248 5.0 10.0 0.00 0.00 0.00 48 1010.4
20260509192307 72 210 4.0 10.0 0.00 0.00 0.00 48 1010.5
20260509191807 73 196 5.0 9.0 0.00 0.00 0.00 47 1010.4
20260509191307 72 204 5.0 10.0 0.00 0.00 0.00 47 1010.5
20260509190808 73 231 4.0 9.0 0.00 0.00 0.00 46 1010.5
20260509190307 72 240 4.0 9.0 0.00 0.00 0.00 48 1010.6
20260509185807 72 222 6.0 13.0 0.00 0.00 0.00 48 1010.7
20260509185307 72 218 6.0 10.0 0.00 0.00 0.00 50 1010.8
20260509184807 72 168 2.0 6.0 0.00 0.00 0.00 49 1010.7
20260509184307 71 267 7.0 9.0 0.00 0.00 0.00 49 1010.7
20260509183808 71 216 6.0 12.0 0.00 0.00 0.00 49 1010.8
20260509183308 71 155 6.0 10.0 0.00 0.00 0.00 50 1010.8
20260509182807 70 219 6.0 9.0 0.00 0.00 0.00 51 1010.9
20260509182307 70 228 3.0 6.0 0.00 0.00 0.00 53 1011.0
20260509181807 69 201 4.0 7.0 0.00 0.00 0.00 53 1011.1
20260509181307 69 202 5.0 8.0 0.00 0.00 0.00 53 1011.3
20260509180807 69 231 6.0 14.0 0.00 0.00 0.00 53 1011.5
20260509174807 68 160 5.0 9.0 0.00 0.00 0.00 55 1011.8
20260509174307 67 141 6.0 9.0 0.00 0.00 0.00 56 1011.9
20260509173807 67 168 7.0 10.0 0.00 0.00 0.00 56 1011.9
20260509173308 67 191 6.0 9.0 0.00 0.00 0.00 57 1012.0
20260509172807 67 200 6.0 9.0 0.00 0.00 0.00 57 1012.0
20260509172307 67 212 5.0 10.0 0.00 0.00 0.00 57 1012.1
20260509171807 67 164 6.0 9.0 0.00 0.00 0.00 57 1012.1
20260509171308 67 168 7.0 12.0 0.00 0.00 0.00 56 1012.1
20260509170808 68 198 5.0 9.0 0.00 0.00 0.00 56 1012.1
20260509170307 68 206 7.0 10.0 0.00 0.00 0.00 57 1012.1
20260509165807 68 215 3.0 9.0 0.00 0.00 0.00 56 1012.1
20260509165307 68 191 7.0 13.0 0.00 0.00 0.00 55 1012.0
20260509164807 68 187 2.0 8.0 0.00 0.00 0.00 54 1011.9
20260509164307 68 201 6.0 15.0 0.00 0.00 0.00 53 1012.0
20260509163307 67 256 5.0 13.0 0.00 0.00 0.00 54 1012.0
20260509162807 67 204 5.0 8.0 0.00 0.00 0.00 55 1011.9
20260509161807 66 209 5.0 8.0 0.00 0.00 0.00 55 1012.1
20260509161307 66 251 4.0 8.0 0.00 0.00 0.00 54 1012.1
20260509160807 65 241 6.0 8.0 0.00 0.00 0.00 56 1012.1
20260509160307 65 160 5.0 10.0 0.00 0.00 0.00 56 1012.2
20260509155807 65 182 4.0 13.0 0.00 0.00 0.00 56 1012.3
20260509155307 65 182 5.0 8.0 0.00 0.00 0.00 56 1012.3
20260509154807 65 276 5.0 8.0 0.00 0.00 0.00 56 1012.3
20260509154307 65 260 3.0 7.0 0.00 0.00 0.00 56 1012.4
20260509153807 65 254 3.0 8.0 0.00 0.00 0.00 56 1012.5
20260509153307 65 194 6.0 9.0 0.00 0.00 0.00 55 1012.4
20260509152807 64 195 3.0 9.0 0.00 0.00 0.00 57 1012.3
20260509152307 64 209 3.0 7.0 0.00 0.00 0.00 56 1012.3
20260509151807 63 248 3.0 8.0 0.00 0.00 0.00 57 1012.3
20260509151307 62 219 6.0 9.0 0.00 0.00 0.00 59 1012.2
20260509150807 62 211 6.0 12.0 0.00 0.00 0.00 59 1012.3
20260509150308 62 184 4.0 9.0 0.00 0.00 0.00 57 1012.6
20260509145808 62 206 9.0 12.0 0.00 0.00 0.00 58 1012.7
20260509145307 61 191 7.0 10.0 0.00 0.00 0.00 58 1012.5
20260509144807 61 215 5.0 9.0 0.00 0.00 0.00 60 1012.5
20260509144307 60 172 6.0 10.0 0.00 0.00 0.00 61 1012.6
20260509143807 60 173 6.0 9.0 0.00 0.00 0.00 61 1012.4
20260509143307 60 165 6.0 9.0 0.00 0.00 0.00 61 1012.4
20260509142807 59 165 5.0 9.0 0.00 0.00 0.00 62 1012.4
20260509141807 59 150 5.0 6.0 0.00 0.00 0.00 64 1012.4
20260509141307 58 120 2.0 5.0 0.00 0.00 0.00 63 1012.5
20260509140807 58 115 2.0 5.0 0.00 0.00 0.00 64 1012.5
20260509135807 57 182 3.0 6.0 0.00 0.00 0.00 66 1012.9
20260509135307 57 140 4.0 5.0 0.00 0.00 0.00 67 1012.9
20260509134807 57 176 3.0 3.0 0.00 0.00 0.00 67 1013.0
20260509134307 57 132 2.0 3.0 0.00 0.00 0.00 66 1013.0
20260509133808 57 193 1.0 3.0 0.00 0.00 0.00 66 1013.1
20260509133307 57 151 1.0 3.0 0.00 0.00 0.00 65 1013.1
20260509132807 57 306 0.0 0.0 0.00 0.00 0.00 64 1013.1
20260509132307 56 306 0.0 1.0 0.00 0.00 0.00 64 1013.2
20260509131807 56 172 1.0 3.0 0.00 0.00 0.00 66 1013.2
20260509131307 56 201 2.0 3.0 0.00 0.00 0.00 65 1013.2
20260509130807 56 209 1.0 2.0 0.00 0.00 0.00 67 1013.3
20260509130307 56 260 1.0 2.0 0.00 0.00 0.00 66 1013.2
20260509125807 55 255 0.0 1.0 0.00 0.00 0.00 65 1013.1
20260509125308 55 162 1.0 2.0 0.00 0.00 0.00 67 1013.1
20260509124807 55 95 0.0 2.0 0.00 0.00 0.00 67 1013.0
20260509124307 55 76 0.0 1.0 0.00 0.00 0.00 67 1013.1
20260509123807 55 82 0.0 1.0 0.00 0.00 0.00 66 1013.1
20260509123307 55 124 0.0 2.0 0.00 0.00 0.00 66 1013.1
20260509122807 55 152 1.0 3.0 0.00 0.00 0.00 66 1013.2
20260509122307 55 114 2.0 2.0 0.00 0.00 0.00 67 1013.1
20260509121807 55 151 1.0 2.0 0.00 0.00 0.00 66 1013.1
20260509121307 54 261 0.0 1.0 0.00 0.00 0.00 65 1013.1
20260509120807 54 286 0.0 2.0 0.00 0.00 0.00 66 1013.1
20260509120307 54 321 2.0 3.0 0.00 0.00 0.00 66 1013.1
20260509115807 54 289 0.0 1.0 0.00 0.00 0.00 67 1013.2
20260509115308 53 147 0.0 0.0 0.00 0.00 0.00 69 1013.2
20260509114807 53 147 0.0 0.0 0.00 0.00 0.00 73 1013.2
20260509114307 53 147 0.0 0.0 0.00 0.00 0.00 74 1013.2
20260509113807 53 147 0.0 0.0 0.00 0.00 0.00 76 1013.3
20260509113307 52 147 0.0 2.0 0.00 0.00 0.00 77 1013.2
20260509112806 52 167 1.0 3.0 0.00 0.00 0.00 75 1013.1
20260509112307 52 270 0.0 0.0 0.00 0.00 0.00 74 1013.1
20260509111307 51 305 2.0 2.0 0.00 0.00 0.00 83 1013.0
20260509110807 51 55 0.0 0.0 0.00 0.00 0.00 81 1013.0
20260509110307 51 55 0.0 0.0 0.00 0.00 0.00 83 1013.0
20260509105307 51 51 1.0 2.0 0.00 0.00 0.00 75 1013.0
20260509104807 50 258 0.0 0.0 0.00 0.00 0.00 78 1013.1
20260509104307 50 258 0.0 2.0 0.00 0.00 0.00 76 1013.1
20260509103808 50 290 2.0 2.0 0.00 0.00 0.00 77 1013.0
20260509103307 50 299 1.0 2.0 0.00 0.00 0.00 76 1013.0
20260509102307 50 285 0.0 2.0 0.00 0.00 0.00 76 1013.0
20260509101807 50 275 0.0 1.0 0.00 0.00 0.00 77 1013.0
20260509101307 50 260 0.0 0.0 0.00 0.00 0.00 77 1013.0
20260509095306 51 306 4.0 5.0 0.00 0.00 0.00 70 1012.9
20260509094807 51 302 3.0 5.0 0.00 0.00 0.00 74 1013.0
20260509094307 51 295 3.0 3.0 0.00 0.00 0.00 75 1013.0
20260509093807 51 301 3.0 3.0 0.00 0.00 0.00 76 1013.1
20260509093307 51 238 0.0 1.0 0.00 0.00 0.00 76 1013.1
20260509092807 52 175 0.0 3.0 0.00 0.00 0.00 73 1013.2
20260509092307 52 310 3.0 5.0 0.00 0.00 0.00 67 1013.2
20260509091807 51 314 3.0 5.0 0.00 0.00 0.00 72 1013.3
20260509091307 51 311 2.0 3.0 0.00 0.00 0.00 72 1013.2
20260509090807 51 303 2.0 3.0 0.00 0.00 0.00 72 1013.3
20260509085807 51 296 1.0 2.0 0.00 0.00 0.00 71 1013.4
20260509085307 51 338 1.0 2.0 0.00 0.00 0.00 72 1013.4
20260509084807 51 325 0.0 2.0 0.00 0.00 0.00 69 1013.4
20260509084307 51 289 1.0 2.0 0.00 0.00 0.00 72 1013.3
20260509083307 51 266 0.0 2.0 0.00 0.00 0.00 76 1013.3
20260509082307 51 296 0.0 2.0 0.00 0.00 0.00 73 1013.3
20260509081807 51 305 1.0 2.0 0.00 0.00 0.00 73 1013.4
20260509081307 51 308 1.0 2.0 0.00 0.00 0.00 73 1013.4
20260509080806 51 267 0.0 2.0 0.00 0.00 0.00 72 1013.4
20260509080307 52 313 0.0 2.0 0.00 0.00 0.00 73 1013.4
20260509075807 52 301 1.0 2.0 0.00 0.00 0.00 73 1013.4
20260509075306 52 306 2.0 3.0 0.00 0.00 0.00 70 1013.4
20260509074307 51 292 2.0 3.0 0.00 0.00 0.00 74 1013.6
20260509073806 51 240 0.0 1.0 0.00 0.00 0.00 75 1013.6
20260509073307 51 284 0.0 2.0 0.00 0.00 0.00 75 1013.7
20260509072807 52 313 1.0 2.0 0.00 0.00 0.00 76 1013.7
20260509071807 52 275 2.0 3.0 0.00 0.00 0.00 69 1013.6
20260509071307 51 319 3.0 3.0 0.00 0.00 0.00 74 1013.7
20260509070307 51 282 0.0 1.0 0.00 0.00 0.00 77 1013.8
20260509065807 51 172 1.0 3.0 0.00 0.00 0.00 75 1013.8
20260509065307 51 323 2.0 3.0 0.00 0.00 0.00 73 1013.8
20260509064807 51 167 0.0 2.0 0.00 0.00 0.00 74 1013.9
20260509063807 51 314 1.0 2.0 0.00 0.00 0.00 70 1013.9
20260509063307 51 270 2.0 2.0 0.00 0.00 0.00 69 1014.0
20260509062807 50 302 1.0 2.0 0.00 0.00 0.00 72 1014.1
20260509061806 51 310 0.0 0.0 0.00 0.00 0.00 74 1014.1
20260509061307 50 310 2.0 3.0 0.00 0.00 0.00 72 1014.2
20260509060807 50 304 2.0 3.0 0.00 0.00 0.00 72 1014.2
20260509060307 50 309 1.0 3.0 0.00 0.00 0.00 72 1014.2
20260509055807 50 330 2.0 5.0 0.00 0.00 0.00 70 1014.2
20260509055307 49 318 2.0 5.0 0.00 0.00 0.00 73 1014.2
20260509054807 49 319 2.0 5.0 0.00 0.00 0.00 73 1014.3
20260509054307 50 300 1.0 2.0 0.00 0.00 0.00 72 1014.3
20260509052807 50 312 4.0 6.0 0.00 0.00 0.00 71 1014.3
20260509052307 50 305 5.0 5.0 0.00 0.00 0.00 69 1014.3
20260509051807 50 306 1.0 5.0 0.00 0.00 0.00 73 1014.3
20260509051307 50 288 3.0 5.0 0.00 0.00 0.00 70 1014.3
20260509050807 51 340 1.0 5.0 0.00 0.00 0.00 71 1014.3
20260509050307 51 306 3.0 5.0 0.00 0.00 0.00 70 1014.3
20260509045806 51 304 2.0 3.0 0.00 0.00 0.00 70 1014.3
20260509045307 51 311 3.0 5.0 0.00 0.00 0.00 68 1014.3
20260509044807 51 320 3.0 5.0 0.00 0.00 0.00 70 1014.4
20260509043807 52 323 2.0 5.0 0.00 0.00 0.00 65 1014.3
20260509043307 52 302 3.0 5.0 0.00 0.00 0.00 67 1014.3
20260509042807 52 298 1.0 5.0 0.00 0.00 0.00 65 1014.3
20260509042307 52 330 1.0 3.0 0.00 0.00 0.00 68 1014.2
20260509041807 52 279 3.0 5.0 0.00 0.00 0.00 64 1014.2
20260509040807 51 305 2.0 3.0 0.00 0.00 0.00 70 1014.3
20260509040307 51 313 2.0 3.0 0.00 0.00 0.00 69 1014.4
20260509035807 51 312 2.0 3.0 0.00 0.00 0.00 68 1014.4
20260509035307 51 320 1.0 5.0 0.00 0.00 0.00 71 1014.4
20260509034807 51 313 2.0 5.0 0.00 0.00 0.00 70 1014.5
20260509034306 51 313 1.0 3.0 0.00 0.00 0.00 68 1014.5
20260509032307 52 322 3.0 5.0 0.00 0.00 0.00 70 1014.5
20260509031806 52 314 3.0 3.0 0.00 0.00 0.00 67 1014.5
20260509031307 52 307 3.0 5.0 0.00 0.00 0.00 67 1014.6
20260509030307 52 321 2.0 3.0 0.00 0.00 0.00 68 1014.7
20260509025807 52 329 2.0 3.0 0.00 0.00 0.00 70 1014.7
20260509025307 53 287 0.0 5.0 0.00 0.00 0.00 68 1014.6
20260509024807 52 323 3.0 7.0 0.00 0.00 0.00 64 1014.6
20260509024307 52 300 3.0 3.0 0.00 0.00 0.00 70 1014.8
20260509023806 52 312 2.0 3.0 0.00 0.00 0.00 69 1014.7
20260509023307 53 321 2.0 3.0 0.00 0.00 0.00 68 1014.8
20260509022807 53 310 3.0 3.0 0.00 0.00 0.00 68 1014.8
20260509022307 53 327 2.0 3.0 0.00 0.00 0.00 67 1014.7
20260509021807 53 324 2.0 3.0 0.00 0.00 0.00 68 1014.7
20260509021306 53 307 2.0 2.0 0.00 0.00 0.00 67 1014.7
20260509020807 53 312 0.0 3.0 0.00 0.00 0.00 66 1014.6
20260509020307 54 308 2.0 6.0 0.00 0.00 0.00 65 1014.5
20260509015806 54 307 5.0 6.0 0.00 0.00 0.00 62 1014.4
20260509015307 54 300 4.0 6.0 0.00 0.00 0.00 66 1014.4
20260509014807 54 196 1.0 6.0 0.00 0.00 0.00 66 1014.4
20260509014307 55 293 3.0 6.0 0.00 0.00 0.00 62 1014.3
20260509013807 55 308 5.0 6.0 0.00 0.00 0.00 61 1014.3
20260509013306 54 314 4.0 6.0 0.00 0.00 0.00 63 1014.3
20260509012807 54 311 3.0 5.0 0.00 0.00 0.00 65 1014.4
20260509012307 55 313 2.0 3.0 0.00 0.00 0.00 64 1014.3
20260509011807 55 328 3.0 3.0 0.00 0.00 0.00 64 1014.3
20260509010806 56 306 3.0 5.0 0.00 0.00 0.00 60 1014.2